User: anonymous   Login
Location: Unspecified
(0.0000°N, 0.0000°E)
Time: 08:05:02
(UTC+00:00)
Language:

nSIGHT-1 - Orbit

View from above orbital plane
View from above orbital plane
View from above satellite
View from above satellite

Ground track
Ground track

The orbit data is extracted from the following two-line orbital elements,

1 42726U 98067MF  19345.57196864  .00044183  00000-0  22336-3 0  9998
2 42726  51.6311 123.8979 0003069 162.8981 197.2125 15.81110006145541
Epoch (UTC): 11 December 2019 13:43:38
Eccentricity: 0.0003069
inclination: 51.6311°
perigee height: 325 km
apogee height: 329 km
right ascension of ascending node: 123.8979°
argument of perigee: 162.8981°
revolutions per day: 15.81110006
mean anomaly at epoch: 197.2125°
orbit number at epoch: 14554

The dashed part of the orbit path shows where the satellite is in the earth's shadow,  

DLR